Location: Unspecified
(48.5670°N, 0.0000°E)
Time: 00:59:46
(UTC+00:00)

Vanguard 2 Rocket - Pass Details

Date: 02 September 2019
Orbit: 554 x 3327 km, 32.9° (Epoch: 19 September)

Event Time Altitude Azimuth Distance (km) Brightness Sun altitude
Rises 06:19:19 0° 266° (W) 5,546 10.2 9.2°
Reaches altitude 10° 06:23:55 10° 252° (WSW) 4,983 10.1 10.0°
Maximum altitude 06:33:47 21° 211° (SSW) 4,842 10.4 11.6°
Drops below altitude 10° 06:45:55 10° 172° (S) 6,213 11.3 13.6°
Sets 06:52:55 0° 159° (SSE) 7,304 11.9 14.7°
